TimeEDT,TemperatureF,Dew PointF,Humidity,Sea Level PressureIn,VisibilityMPH,Wind Direction,Wind SpeedMPH,Gust SpeedMPH,PrecipitationIn,Events,Conditions,WindDirDegrees,DateUTC
12:14 AM,75.2,71.6,89,30.01,10.0,ESE,4.6,-,N/A,,Scattered Clouds,120,2013-07-22 04:14:00
12:27 AM,75.2,71.6,89,30.01,10.0,SE,4.6,-,N/A,,Partly Cloudy,130,2013-07-22 04:27:00
12:54 AM,73.9,71.1,91,29.97,10.0,SE,4.6,-,N/A,,Partly Cloudy,140,2013-07-22 04:54:00
1:42 AM,73.4,71.6,94,30.00,10.0,Calm,Calm,-,N/A,,Mostly Cloudy,0,2013-07-22 05:42:00
1:52 AM,75.2,71.6,89,29.99,10.0,Calm,Calm,-,N/A,,Mostly Cloudy,0,2013-07-22 05:52:00
1:54 AM,75.0,72.0,90,29.96,10.0,Calm,Calm,-,N/A,,Mostly Cloudy,0,2013-07-22 05:54:00
2:54 AM,75.0,72.0,90,29.94,10.0,Calm,Calm,-,N/A,,Overcast,0,2013-07-22 06:54:00
3:54 AM,73.9,71.1,91,29.92,10.0,NNW,3.5,-,N/A,,Overcast,330,2013-07-22 07:54:00
4:54 AM,73.9,71.1,91,29.91,10.0,Calm,Calm,-,N/A,,Overcast,0,2013-07-22 08:54:00
5:54 AM,73.0,71.1,93,29.91,10.0,NNE,3.5,-,N/A,,Overcast,30,2013-07-22 09:54:00
6:54 AM,73.0,70.0,90,29.94,10.0,Calm,Calm,-,N/A,,Overcast,0,2013-07-22 10:54:00
7:35 AM,73.4,69.8,88,29.99,10.0,Calm,Calm,-,N/A,,Overcast,0,2013-07-22 11:35:00
7:43 AM,73.4,69.8,88,29.99,10.0,Calm,Calm,-,N/A,,Overcast,0,2013-07-22 11:43:00
7:54 AM,73.9,70.0,87,29.96,10.0,Calm,Calm,-,N/A,,Mostly Cloudy,0,2013-07-22 11:54:00
8:10 AM,75.2,69.8,83,30.00,10.0,Calm,Calm,-,N/A,,Overcast,0,2013-07-22 12:10:00
8:26 AM,75.2,69.8,83,30.00,10.0,West,4.6,-,N/A,,Mostly Cloudy,260,2013-07-22 12:26:00
8:54 AM,75.9,69.1,79,29.96,10.0,West,4.6,-,N/A,,Scattered Clouds,260,2013-07-22 12:54:00
9:54 AM,77.0,68.0,74,29.95,10.0,WSW,6.9,-,N/A,,Scattered Clouds,250,2013-07-22 13:54:00
10:54 AM,82.0,68.0,62,29.95,10.0,West,5.8,-,N/A,,Scattered Clouds,260,2013-07-22 14:54:00
11:54 AM,84.0,66.0,55,29.94,10.0,WSW,4.6,-,N/A,,Scattered Clouds,250,2013-07-22 15:54:00
12:54 PM,86.0,66.0,51,29.92,10.0,Variable,4.6,-,N/A,,Scattered Clouds,0,2013-07-22 16:54:00
1:54 PM,87.1,64.9,48,29.88,10.0,West,4.6,-,N/A,,Scattered Clouds,280,2013-07-22 17:54:00
2:54 PM,87.1,66.9,51,29.86,10.0,SE,5.8,-,N/A,,Scattered Clouds,140,2013-07-22 18:54:00
3:54 PM,86.0,68.0,55,29.83,10.0,WSW,4.6,21.9,N/A,,Mostly Cloudy,250,2013-07-22 19:54:00
4:33 PM,77.0,71.6,83,29.89,6.0,South,17.3,24.2,0.16,Rain-Thunderstorm,Light Thunderstorms and Rain,190,2013-07-22 20:33:00
4:54 PM,75.9,70.0,82,29.85,10.0,South,11.5,-,0.16,Rain,Light Rain,180,2013-07-22 20:54:00
5:54 PM,79.0,71.1,77,29.83,10.0,SSW,3.5,-,0.00,,Mostly Cloudy,200,2013-07-22 21:54:00
6:54 PM,79.0,72.0,79,29.82,10.0,ESE,6.9,-,N/A,,Mostly Cloudy,120,2013-07-22 22:54:00
7:54 PM,79.0,72.0,79,29.81,10.0,SE,4.6,-,N/A,,Scattered Clouds,130,2013-07-22 23:54:00
8:54 PM,78.1,72.0,81,29.82,10.0,ESE,4.6,-,N/A,,Scattered Clouds,110,2013-07-23 00:54:00
9:54 PM,77.0,73.0,88,29.84,10.0,WNW,3.5,-,N/A,,Mostly Cloudy,290,2013-07-23 01:54:00
10:54 PM,75.0,68.0,79,29.84,10.0,West,8.1,-,0.00,Rain,Light Rain,270,2013-07-23 02:54:00
11:54 PM,75.0,68.0,79,29.83,10.0,WSW,6.9,-,0.00,,Mostly Cloudy,250,2013-07-23 03:54:00